SL-14 DEB, 45325

Orbit data source: Space-Track

SL-14 DEB, 45325 is space debris in LEO originally from a launch on Thu, 15 Aug 1991 UTC launched from the Plesetsk Missile And Space Complex (PKMTR). Debris objects in space refer to the collection of defunct objects orbiting the Earth. Examples of debris include non-operational satellites, rocket bodies, and fragments generated from explosions, collisions, or faulty payload assembly.

Loading next visibility...
Identifier
45325, 1991-056BP
Orbit
LEO
Country
Flag of CISCIS
Related business
Manufacturer
Unknown
Mission
Spacecraft
Bus & Motor
Unknown
Mass
Unknown
Launch date (UTC)
1991-08-15 (34 years ago)
Launch vehicle
Unknown
Launch site
Plesetsk Missile And Space Complex (PKMTR)
Object type
Payload
Rocket body
Debris
Shape & HBR
Unknown shape, 0.1 m
Radar Cross Section
Small (<0.1 m²)

Expand to show TLE details & history
Last TLE update: 9 hours ago

TLE from 9 hours ago
0 SL-14 DEB
1 45325U 91056BP  25288.57409810  .00032103  00000-0  12463-1 0  9995
2 45325  82.5344 146.7109 0097659  73.2533 287.9340 14.27121537283261
Epoch: 2025-10-15T13:46Z
TLE epoch observation values (Epoch: 2025-10-15T13:46:42.075Z)
Latitude
0.00001°
Longitude
-84.31063°
Altitude
783.359 km
Speed
7.473 km/s
True Right ascension
09h 46m 50s
True Declination
0° 00' 00"
Sunlit
Object was in daylight at epoch
Visualization orbit readout
Latitude
Unknown
Longitude
Unknown
Altitude
Unknown
Speed
Unknown
Apparent Right ascension
Unknown
Apparent Declination
Unknown
Sunlit
N/A
Visualization observer readout
Local Sidereal Time
17:55:07
Azimuth
Unknown
Elevation
Unknown
Doppler factor
Unknown
Orbital elements
Apogee altitude
868.548 km
Perigee altitude
728.376 km
Semi-major axis
7,176.599 km
Eccentricity
0.00977
Inclination
82.5344°
RAAN
146.7109°
Arg. of periapsis
73.2533°
True anomaly
286.86533°
Mean anomaly
287.934°
Eccentric anomaly
287.40006°
Mean motion
3.56998 °/min
Orbital period
100.84 mins
BSTAR
0.012463
Loading maneuver chart data...
Computing Atmospheric mass density...
Loading historical data...
Loading historical data...
Loading historical data...
Loading historical data...
Loading historical data...
Loading historical data...
Loading historical data...

Documentation

Showing up to 5 results
|